Location: *
(48.7358°N, 0.3111°E)
Time: 18:28:29
(UTC+00:00)

NOSS 3-2 (C) - Pass Details

Date: 22 October 2019
Orbit: 818 x 1394 km, 63.4° (Epoch: 11 November)

Event Time Altitude Azimuth Distance (km) Brightness Sun altitude
Exits shadow 03:25:53 68° 213° (SSW) 1,365 3.9 -30.5°
Drops below altitude 10° 03:33:44 10° 154° (SSE) 3,412 6.4 -29.3°
Sets 03:36:43 0° 152° (SSE) 4,415 7.0 -28.8°
